Погода в Улькане

Россия / Иркутская область     57°14′32″N   107°19′18″E
темп.,
°C
ветер,
м/с
пор.,
м/с
влажн.,
%
обл.,
%
осадки,
мм/ч
давл.,
гПа
погр.,
м
14 августа, вс
вс1423:00+12сз1171100 0.0 100713
02:00+8зсз118747 0.0 100810
05:00+8сз11845 0.0 100811
08:00+12зсз11694 0.0 1008276
11:00+15зсз22495 0.0 10071295
14:00+18зюз233911 0.0 10061989
17:00+18з233972 0.0 10051991
20:00+13св236790 0.0 100681
15 августа, пн
пн1523:00+9в118062 0.0 100711
02:00+10всв0075100 0.0 100511
05:00+9ююз1195100 2.9 100437
08:00+10ю2595100 5.4 1004250
11:00+14зюз5990100 0.4 10031029
14:00+18зюз58596 0.5 10031456
17:00+20з495110 0.1 10012008
20:00+14юз1283100 0.8 100213
16 августа, вт
вт1623:00+12зюз41195100 1.5 1003514
02:00+10ююз2896100 2.7 1002323
05:00+9зюз4895100 0.0 1003493
08:00+10зюз4888100 0.0 1005818
11:00+11юз4886100 0.2 10051017
14:00+14юз586180 0.2 10041425
17:00+14з4868100 0.3 10041189
20:00+10з3885100 0.7 1004391
17 августа, ср
ср1723:00+8зюз2892100 0.4 1005423
02:00+7з3894100 1.8 1006942
05:00+6зюз489399 0.3 1007928
08:00+7юз489292 0.6 1007899
11:00+10зюз468599 0.8 10071023
14:00+10юз587896 1.3 1008962
17:00+9юз5879100 0.1 1008823
20:00+8юз488598 0.1 1009603
18 августа, чт
чт1823:00+7юз388999 0.0 1010453
02:00+7юз3789100 0.0 1010425
05:00+6юз2791100 0.0 1010394
08:00+7юз2685100 0.0 1009526
11:00+10зюз3476100 0.0 1009807
14:00+11зюз347573 0.4 1009857
17:00+12зсз346883 0.2 1008978
20:00+9зюз118299 0.3 100910